TimeEST,TemperatureF,Dew PointF,Humidity,Sea Level PressureIn,VisibilityMPH,Wind Direction,Wind SpeedMPH,Gust SpeedMPH,PrecipitationIn,Events,Conditions,WindDirDegrees,DateUTC
12:00 AM,30.6,29.1,94,30.17,-9999.0,Calm,Calm,-,N/A,,Unknown,0,2013-11-17 05:00:00
1:00 AM,30,28,90,30.16,,Calm,Calm,,,,,,2013-11-17 06:00:00
1:00 AM,30.0,28.2,93,30.16,-9999.0,Calm,Calm,-,N/A,,Unknown,0,2013-11-17 06:00:00
2:00 AM,30.7,28.6,92,30.14,-9999.0,SE,1.2,-,N/A,,Unknown,130,2013-11-17 07:00:00
3:00 AM,36.9,32.9,86,30.12,-9999.0,ESE,4.6,-,N/A,,Unknown,120,2013-11-17 08:00:00
4:00 AM,39.2,31.3,73,30.09,-9999.0,East,4.6,-,N/A,,Unknown,100,2013-11-17 09:00:00
5:00 AM,40.8,33.1,74,30.08,-9999.0,ESE,5.8,-,N/A,,Unknown,120,2013-11-17 10:00:00
6:00 AM,41.9,34.7,76,30.06,-9999.0,East,4.6,-,N/A,,Unknown,100,2013-11-17 11:00:00
7:00 AM,44,36,64,30.03,,SE,9.2,,,,,130,2013-11-17 12:00:00
7:00 AM,44.4,35.8,72,30.03,-9999.0,SE,9.2,-,N/A,,Unknown,130,2013-11-17 12:00:00
8:00 AM,47.7,37.8,69,30.03,-9999.0,SSE,10.4,-,N/A,,Unknown,150,2013-11-17 13:00:00
9:00 AM,50.0,40.6,70,29.99,-9999.0,SSE,16.1,21.9,N/A,,Unknown,150,2013-11-17 14:00:00
10:00 AM,51.8,42.3,70,30.00,-9999.0,South,13.8,27.6,N/A,,Unknown,170,2013-11-17 15:00:00
11:00 AM,52.2,43.5,72,30.01,-9999.0,SSE,13.8,19.6,N/A,,Unknown,150,2013-11-17 16:00:00
12:00 PM,52.7,45.1,75,29.98,-9999.0,SE,11.5,-,N/A,,Unknown,140,2013-11-17 17:00:00
1:00 PM,53,46,71,29.94,,SSE,10.4,,,,,150,2013-11-17 18:00:00
1:00 PM,53.1,46.2,78,29.94,-9999.0,SSE,10.4,-,N/A,,Unknown,150,2013-11-17 18:00:00
2:00 PM,52.2,48.6,88,29.91,-9999.0,SSE,10.4,-,0.02,,Unknown,150,2013-11-17 19:00:00
3:00 PM,52.2,49.5,91,29.89,-9999.0,SSE,13.8,20.7,0.08,,Unknown,150,2013-11-17 20:00:00
4:00 PM,52.2,50.0,92,29.86,-9999.0,SSE,11.5,18.4,0.06,,Unknown,150,2013-11-17 21:00:00
5:00 PM,53.1,50.7,92,29.83,-9999.0,SSE,11.5,19.6,0.01,,Unknown,160,2013-11-17 22:00:00
6:00 PM,53.2,50.9,92,29.81,-9999.0,SSE,10.4,-,N/A,,Unknown,150,2013-11-17 23:00:00
7:00 PM,54,51,86,29.77,,SSE,11.5,,,,,150,2013-11-18 00:00:00
7:00 PM,53.8,51.1,91,29.77,-9999.0,SSE,11.5,-,N/A,,Unknown,150,2013-11-18 00:00:00
8:00 PM,53.8,50.9,90,29.72,-9999.0,SSE,11.5,-,N/A,,Unknown,150,2013-11-18 01:00:00
9:00 PM,55.9,51.8,86,29.67,-9999.0,SSE,15.0,21.9,N/A,,Unknown,150,2013-11-18 02:00:00
10:00 PM,56.1,52.2,87,29.61,-9999.0,SSE,16.1,25.3,N/A,,Unknown,150,2013-11-18 03:00:00
11:00 PM,56.1,52.9,89,29.57,-9999.0,SE,16.1,25.3,0.03,,Unknown,140,2013-11-18 04:00:00